User: anonymous   Login
Location: Unspecified
(0.0000°N, 0.0000°E)
Time: 07:47:58
(UTC+00:00)
Language:

RANDEV - Orbit

View from above orbital plane
View from above orbital plane
View from above satellite
View from above satellite

Ground track
Ground track

The orbit is defined by the following mean orbital elements,

1 52898U          26071.94721139 +.00000000 +00000-0 +26591-3 0 00003
2 52898  98.2041 216.5432 0007263 335.1875  24.8977 14.63504836    08
Epoch (UTC): 12 March 2026 22:43:59
Eccentricity: 0.0007263
inclination: 98.2041°
perigee height: 677 km
apogee height: 687 km
right ascension of ascending node: 216.5432°
argument of perigee: 335.1875°
revolutions per day: 14.63504836
mean anomaly at epoch: 24.8977°

The dashed part of the orbit path shows where the satellite is in the earth's shadow,  

DLR